SCP
0 0 0 0 0 0 0 0 0 0 0 0 0 0 0 0 0 0 0 0 0 0 0 0 0 0 0 0 0 0 0 0 0 0 0 0 0 0 0 0 0 0 0
0 0 0 0 0 0 0 0 0 0 0 0 0 0 0 0 0 0 0 0 0 0 0 0 0 0 0 0 0 0 0 0 0 0 0 0 0 0 0 0 0 0 0
0 0 0 0 0 0 0 0 0 0 0 0 0 0 0 0 0 0 0 0 0 0 0 0 0 0 0 0 0 0 0 0 0 0 0 0 0 0 0 0 0 0 0
0 0 0 0 0 0 0 0 0 0 0 0 0 0 0 0 0 0 0 0 0 0 0 0 0 0 0 0 0 0 0 0 0 0 0 0 0 0 0 0 0 0 0
0 0 0 0 0 0 0 0 0 0 0 0 0 0 0 0 0 0 0 0 0 0 0 0 0 0 0 0 0 0 0 0 0 0 0 0 0 0 0 0 0 0 0
0 0 0 0 0 0 0 0 0 0 0 0 0 0 0 0 0 0 0 0 0 0 0 0 0 0 0 0 0 0 0 0 0 0 0 0 0 0 0 0 0 0 0
0 0 0 0 0 0 0 0 0 0 0 0 0 0 0 0 0 0 0 0 0 0 0 0 0 0 0 0 0 0 0 0 0 0 0 0 0 0 0 0 0 0 0
0 0 0 0 0 0 0 0 0 0 0 0 0 0 0 0 0 0 0 0 0 0 0 0 0 0 0 0 0 0 0 0 0 0 0 0 0 0 0 0 0 0 0
0 0 0 0 0 0 0 0 0 0 0 0 0 0 0 0 0 0 0 0 0 0 0 0 0 0 0 0 0 0 0 0 0 0 0 0 0 0 0 0 0 0 0
0 0 0 0 0 0 0 0 0 0 0 0 0 0 0 0 0 0 0 0 0 0 0 0 0 0 0 0 0 0 0 0 0 0 0 0 0 0 0 0 0 0 0
0 0 0 1 1 1 1 1 1 1 0 0 0 0 0 0 0 0 0 0 0 0 0 0 0 0 0 0 0 0 0 0 0 0 0 0 0 0 0 0 0 0 0
1 1 1 1 1 1 1 1 1 1 0 0 0 0 0 0 0 0 0 0 0 0 0 0 0 0 0 0 0 0 0 0 0 0 0 0 0 0 0 0 0 0 0
1 1 1 1 1 1 1 1 1 1 0 0 0 0 0 0 0 0 0 0 0 0 0 0 0 0 0 0 0 0 0 0 0 0 0 0 0 0 0 0 0 0 0
1 1 1 1 1 1 1 1 1 1 0 0 0 0 0 0 0 0 0 0 0 0 0 0 0 0 0 0 0 0 0 0 0 0 0 0 0 0 0 0 0 0 0
1 1 1 1 1 1 1 1 1 1 1 1 1 0 0 0 0 0 0 0 0 0 0 0 0 0 0 0 0 0 0 0 0 0 0 0 0 0 0 0 0 0 0
1 1 1 1 1 1 1 1 1 1 1 1 1 1 1 0 0 0 0 0 0 0 0 0 0 0 0 0 0 0 0 0 0 0 0 0 0 0 0 0 0 0 0
1 1 1 1 1 1 1 1 1 1 1 1 1 1 1 1 1 1 1 1 0 0 0 0 0 0 0 0 0 0 0 0 0 0 0 0 0 0 0 0 0 0 0
1 1 1 1 1 1 1 1 1 1 1 1 1 1 1 1 1 1 1 1 1 1 0 0 0 0 0 0 0 0 0 0 0 0 0 0 0 0 0 0 0 0 0
1 1 1 1 1 1 1 1 1 1 1 1 1 1 1 1 1 1 1 1 1 1 0 0 0 0 0 0 0 0 0 0 0 0 0 0 0 0 0 0 0 0 0
1 1 1 1 1 1 1 1 1 1 1 1 1 1 1 1 1 1 1 1 1 0 0 0 0 0 0 0 0 0 0 0 0 0 0 0 0 0 0 0 0 0 0
1 1 1 1 1 1 1 1 1 1 1 1 1 1 1 1 1 1 1 1 0 0 0 0 0 0 0 0 0 0 0 0 0 0 0 0 0 0 0 0 0 0 0
1 1 1 1 1 1 1 1 1 1 1 1 1 1 1 1 1 1 0 0 0 0 0 0 0 0 0 0 0 0 0 0 0 0 0 0 0 0 0 0 0 0 0
1 1 1 1 1 1 1 1 1 1 1 1 1 1 1 0 0 0 0 0 0 0 0 0 0 0 0 0 0 0 0 0 0 0 0 0 0 0 0 0 0 0 0
1 1 1 1 1 1 1 1 1 1 1 1 1 1 1 0 0 0 0 0 0 0 0 0 0 0 0 0 0 0 0 0 0 0 0 0 0 0 0 0 0 0 0
1 1 1 1 1 1 1 1 1 1 1 1 1 1 0 0 0 0 0 0 0 0 0 0 0 0 0 0 0 0 0 0 0 0 0 0 0 0 0 0 0 0 0
1 1 1 1 1 1 1 1 1 1 1 1 1 0 0 0 0 0 0 0 0 0 0 0 0 0 0 0 0 0 0 0 0 0 0 0 0 0 0 0 0 0 0
Wind_Speed
6 5 5 6 5 4 4 3 3 2 2 1 1 2 3 3 3 3 4 3 4 4 3 3 3 2 3 3 3 2 3 2 1 1 2 3 3 2 2 1 1 2 2
7 7 6 6 5 5 4 4 4 3 2 2 2 1 2 2 3 3 3 3 3 3 3 3 2 3 2 3 3 2 1 1 1 0 1 2 3 2 2 1 2 1 2
8 8 8 6 6 5 5 4 3 3 3 3 3 3 3 2 2 2 2 3 3 3 3 3 2 2 1 2 1 1 0 0 1 1 2 1 1 1 2 1 1 1 1
8 8 8 8 7 6 5 5 4 4 3 3 2 3 2 2 2 1 3 3 3 3 3 2 2 1 1 1 1 1 1 1 1 0 1 2 2 2 1 2 2 1 1
8 8 8 8 7 6 6 5 5 4 4 3 3 2 2 2 2 2 3 2 3 3 3 2 1 1 1 1 1 0 1 1 1 1 1 0 1 2 2 0 0 1 1
7 7 7 8 7 7 6 6 5 4 4 4 3 2 2 2 2 2 2 1 2 2 3 2 2 1 1 1 0 0 1 1 1 2 2 1 1 1 1 1 2 1 0
8 8 8 9 8 7 7 6 6 5 5 4 3 3 3 3 3 2 2 1 1 2 2 2 1 1 1 1 1 0 1 1 1 2 2 2 1 2 2 2 2 2 1
7 8 9 9 8 8 7 7 6 6 5 4 4 3 2 2 2 1 1 1 1 2 2 1 1 1 1 1 1 1 0 0 1 2 2 2 1 1 1 2 2 2 2
7 8 9 9 9 8 8 7 7 6 5 5 4 3 2 1 2 2 1 1 1 1 2 1 0 1 1 1 1 1 1 1 2 1 1 2 1 1 1 2 3 3 3
7 7 8 8 8 8 8 7 7 6 5 5 4 4 3 3 2 2 2 1 1 1 1 0 0 0 0 1 2 1 1 2 1 1 1 2 2 1 2 2 2 3 4
7 7 8 8 8 8 8 7 7 6 6 5 4 3 3 3 2 2 1 1 1 1 1 1 1 1 1 1 1 2 1 2 2 2 1 2 3 2 2 2 2 2 3
5 6 7 8 8 8 7 7 6 7 6 5 5 4 3 2 2 1 1 1 1 0 1 1 1 1 1 1 2 3 2 2 2 2 2 2 2 2 3 2 2 2 3
6 6 6 7 7 7 7 6 6 6 6 6 5 4 3 3 2 1 1 1 0 1 1 1 1 1 2 2 2 2 2 2 2 2 2 2 2 2 2 3 3 2 2
6 6 6 7 7 6 6 6 6 5 5 5 5 4 3 3 2 2 1 1 0 1 1 1 1 1 2 2 2 2 2 2 2 2 2 2 3 3 3 3 3 3 3
5 6 6 6 7 6 6 6 5 5 5 5 4 4 4 3 3 2 2 1 1 1 1 1 1 2 2 1 2 2 2 2 2 2 2 2 2 3 3 4 3 3 4
4 4 5 6 6 6 6 5 5 5 5 4 4 4 3 3 3 2 2 1 1 1 1 2 2 2 1 3 3 3 2 2 3 3 3 2 2 0 1 2 3 4 5
3 4 4 5 5 6 6 6 5 5 5 4 4 4 3 3 3 3 2 2 2 1 1 1 1 1 1 2 1 3 3 3 2 3 3 3 1 1 2 2 3 4 4
2 2 4 5 5 5 5 5 5 5 5 4 4 3 3 3 3 3 2 2 2 1 1 1 1 1 1 2 2 4 4 3 3 3 3 3 2 2 3 4 3 3 3
1 2 3 4 5 5 6 5 5 4 4 3 3 3 3 3 3 3 2 1 1 1 1 0 1 1 1 2 2 4 3 2 3 3 2 3 2 2 4 4 4 4 4
1 1 2 3 5 5 5 6 5 4 3 2 2 2 2 2 2 1 1 1 1 1 1 0 1 1 1 2 2 5 3 2 3 3 3 2 1 1 3 4 4 5 5
2 2 3 3 4 4 5 5 4 3 2 2 2 2 2 2 2 1 1 1 1 1 0 0 0 0 1 1 2 4 3 3 4 3 3 0 2 1 4 5 5 5 6
3 3 3 3 3 4 4 4 3 3 3 2 2 2 2 1 2 2 1 1 1 2 1 1 1 1 1 1 2 0 2 5 4 4 3 1 0 3 6 5 4 5 7
3 3 3 3 3 3 3 3 3 3 3 3 3 2 1 1 2 2 2 2 2 2 1 1 1 1 1 2 4 3 3 5 4 3 3 2 4 5 6 6 6 7 6
2 2 3 3 3 3 2 3 3 3 3 3 2 2 2 1 1 1 2 1 1 1 1 1 2 2 1 2 2 1 2 3 3 3 2 5 7 7 5 5 6 6 5
2 2 2 3 3 3 2 2 3 3 3 2 2 2 2 2 1 1 0 0 1 1 2 2 2 2 2 3 4 4 3 3 3 4 4 3 3 3 3 4 4 4 4
1 2 2 3 3 2 2 2 2 2 3 2 2 2 1 1 1 1 2 2 1 2 1 1 3 2 2 2 2 3 3 4 3 4 3 3 3 4 4 4 4 4 4
Wind_Direction
163 160 164 161 154 147 142 141 133 120 126 117 116 109 99 95 90 80 72 74 70 70 69 74 78 73 78 76 87 91 106 100 90 117 117 114 115 104 107 101 100 121 132
170 169 171 167 168 160 156 156 153 145 149 123 121 110 95 99 91 78 79 77 76 74 83 75 89 84 93 98 93 87 75 106 118 1 156 148 142 148 118 144 159 136 150
182 175 173 172 173 167 164 153 146 146 143 141 147 135 136 138 114 101 93 73 68 68 71 82 75 86 106 106 113 128 188 160 143 341 323 314 100 136 133 128 122 146 154
187 177 170 172 174 169 161 155 153 147 144 151 136 139 129 109 95 98 85 81 73 67 75 81 87 91 88 108 179 118 240 240 227 154 320 334 347 285 157 155 130 138 152
181 178 174 169 170 165 160 153 151 147 146 149 141 155 136 121 115 104 97 89 85 77 71 73 79 84 85 70 22 46 275 255 284 289 265 203 218 266 259 177 125 136 146
174 173 167 162 165 162 161 155 153 150 153 157 148 150 131 120 115 114 110 120 100 91 75 75 68 65 47 45 340 258 222 290 323 305 287 263 252 251 249 220 214 215 174
169 166 164 164 165 163 161 156 153 156 157 157 155 155 150 149 140 141 119 115 104 93 76 62 55 47 42 13 335 274 323 299 289 280 285 285 284 282 264 240 229 236 225
166 166 166 166 166 164 162 161 161 161 158 156 149 145 156 161 127 108 92 103 73 68 76 73 64 41 14 355 347 302 327 306 293 293 300 285 297 304 278 260 250 238 221
164 168 167 167 166 164 163 163 162 162 162 154 146 144 146 117 108 130 150 115 105 108 96 101 79 42 12 344 303 333 326 315 285 275 250 274 289 281 288 277 276 275 266
164 168 166 165 162 162 159 161 160 159 155 151 156 143 141 141 137 132 98 79 80 62 93 86 36 36 307 304 287 279 316 292 297 307 318 294 283 291 280 279 279 283 284
159 161 162 159 158 160 157 158 156 154 154 151 149 145 145 138 138 136 126 108 65 31 353 353 341 327 331 319 290 297 293 294 309 304 292 289 307 298 290 291 290 285 278
148 153 155 156 158 159 158 157 157 156 155 153 155 155 149 151 162 145 122 118 105 322 343 324 323 306 327 318 302 302 313 302 301 311 319 304 302 306 296 302 292 291 290
144 145 148 151 153 153 155 155 156 156 154 154 156 156 161 162 167 143 126 137 151 295 324 317 309 317 321 314 315 312 314 312 310 313 306 301 303 296 303 291 283 276 261
148 147 148 152 149 150 154 157 159 158 156 157 159 162 167 171 167 161 168 179 217 261 303 302 305 303 302 308 318 311 311 313 314 307 296 297 293 290 286 272 270 271 271
153 154 155 151 154 154 157 161 161 161 160 162 162 160 164 167 175 181 189 193 223 243 272 284 289 287 272 333 331 298 289 303 303 299 291 295 328 351 321 308 304 287 270
161 162 158 154 160 161 163 163 166 164 164 169 167 162 169 177 186 190 192 200 223 266 276 282 288 298 348 42 2 312 296 294 290 294 293 269 232 221 280 315 314 303 283
173 175 173 169 165 163 164 169 169 169 171 174 175 172 177 181 190 200 190 203 225 249 273 289 308 327 22 43 2 310 288 284 291 291 290 287 305 276 279 257 245 257 267
166 174 184 175 167 162 166 168 168 172 174 177 180 176 186 187 192 204 208 214 222 220 252 289 293 303 43 42 339 304 270 280 283 281 280 281 287 307 304 280 273 263 253
161 177 186 173 159 161 158 157 160 161 168 175 178 184 195 195 200 206 207 208 221 222 221 251 277 278 34 37 334 308 273 272 276 273 276 281 275 349 313 276 269 267 256
96 137 156 154 147 155 153 156 155 158 166 172 175 176 184 193 198 197 213 203 214 207 219 142 312 336 352 40 354 312 281 284 279 265 244 185 250 317 297 273 268 267 272
76 106 132 137 136 144 150 156 153 156 149 142 150 170 163 166 165 166 174 188 205 180 198 154 210 260 345 85 57 345 311 310 297 290 281 78 103 269 279 277 271 276 280
77 92 106 111 124 142 155 157 151 142 138 139 133 132 150 170 139 147 158 181 202 196 199 207 232 189 169 74 97 20 303 309 297 294 298 352 20 266 266 264 274 275 268
87 94 105 112 122 139 154 153 139 139 144 142 138 141 139 150 157 172 171 185 210 242 245 259 279 309 322 156 167 194 238 271 279 302 329 292 261 257 243 230 239 248 253
93 106 118 120 111 114 128 140 143 151 151 150 159 162 157 149 140 201 197 201 221 247 265 289 302 311 310 339 344 305 255 243 256 284 264 229 236 245 255 240 235 247 261
101 119 120 114 107 109 123 135 147 159 162 169 189 189 173 142 150 136 17 208 76 6 298 311 320 320 326 12 359 325 326 320 329 309 283 280 271 264 265 266 267 269 264
122 123 116 110 110 117 123 127 156 176 188 194 206 206 188 165 178 151 114 73 110 119 177 278 296 319 344 330 323 299 292 295 294 279 277 292 294 295 290 286 280 271 272